Simultaneous Nadir Overpasses (SNOs) Predictions

Prediction of SNOs between FY3D and NOAA-19 Satellite Orbit:

Table of predicted SNOs for the next 14.0 days since TLE Epoch: 9/7/2024
Index Date (FY3D) Time (FY3D) Lat,Lon (FY3D) SZA (FY3D ) Date (NOAA-19) Time (NOAA-19) Lat,Lon (NOAA-19) SZA (NOAA-19 ) Distance(km) Time Diff (sec)
1 09/20/2024 10:49:42 -75.98,-161.25 104.89 09/20/2024 10:48:33 -75.99,-161.37 104.88 3.20 69
2 09/20/2024 11:40:27 76.01, 5.99 75.15 09/20/2024 11:39:24 76.02, 6.00 75.16 1.24 63
3 09/20/2024 12:31:12 -76.01, 173.27 104.83 09/20/2024 12:30:29 -76.02, 173.23 104.83 1.20 43
4 09/20/2024 13:21:58 76.03, -19.49 75.21 09/20/2024 13:21:21 76.04, -19.40 75.21 2.39 37
5 09/20/2024 14:12:43 -76.04, 147.80 104.78 09/20/2024 14:12:26 -76.04, 147.83 104.78 0.80 17
6 09/20/2024 15:03:29 76.06, -44.97 75.26 09/20/2024 15:03:18 76.06, -44.81 75.26 4.26 11
7 09/20/2024 15:54:14 -76.07, 122.32 104.72 09/20/2024 15:54:23 -76.06, 122.43 104.73 2.82 9
8 09/20/2024 16:44:59 76.05, -70.28 75.27 09/20/2024 16:45:16 76.04, -70.37 75.27 2.45 17
9 09/20/2024 17:35:44 -76.05, 97.01 104.71 09/20/2024 17:36:20 -76.09, 97.02 104.67 3.85 36
10 09/20/2024 18:26:30 76.07, -95.76 75.33 09/20/2024 18:27:13 76.07, -95.77 75.32 1.06 43
11 09/20/2024 19:17:15 -76.08, 71.53 104.66 09/20/2024 19:18:18 -76.07, 71.46 104.67 2.54 63
12 09/20/2024 20:08:01 76.10,-121.23 75.38 09/20/2024 20:09:10 76.09,-121.18 75.37 2.17 69



Historial Predications of SNOs between FY3D and NOAA-19
